Location: Jodlow
(50.1500°N, 16.7500°E)
Time: 20:53:47
(UTC+02:00)

O/OREOS (USA 219) - Pass Details

Date: 05 March 2024
Orbit: 621 x 646 km, 72.0° (Epoch: 22 May)

Event Time Altitude Azimuth Distance (km) Brightness Sun altitude
Exits shadow 05:33:06 11° 247° (WSW) 2,001 ? -9.5°
Maximum altitude 05:37:03 31° 309° (NW) 1,141 ? -8.9°
Drops below altitude 10° 05:41:11 10° 12° (NNE) 2,056 ? -8.2°
Sets 05:43:42 0° 23° (NNE) 2,970 ? -7.8°
